McComb, MS

9:07 AM CDT on April 21, 2018 (GMT -0500)
McComb-Pike County-Lewis

Weather History for KMCB - November, 2012

Change the Weather History Date:

Wednesday, November 7, 2012

  Actual Average Record
Temperature  
Mean Temperature 54 °F -  
Max Temperature 66 °F 69 °F 84 °F (1986)
Min Temperature 41 °F 44 °F 26 °F (1959)
Degree Days  
Heating Degree Days 12    
Growing Degree Days 4 (Base 50)    
Moisture  
Dew Point 39 °F    
Average Humidity 66    
Maximum Humidity 96    
Minimum Humidity 30    
Precipitation  
Precipitation 0.01 in - - ()
Sea Level Pressure  
Sea Level Pressure 30.08 in    
Wind  
Wind Speed 5 mph (NNW)    
Max Wind Speed 18 mph    
Max Gust Speed 24 mph    
Visibility 10 miles    
Events      
Averages and records for this station are not official NWS values.
T = Trace of Precipitation, MM = Missing Value Source: NWS Daily Summary

Daily Weather History Graph

Daily Weather History Graph

Search for Another Location

Airport or City:

Astronomy

Nov. 07, 2012 Rise Set
Actual Time 6:22 AM CST 5:08 PM CST
Civil Twilight 5:57 AM CST 5:33 PM CST
Nautical Twilight 5:28 AM CST 6:02 PM CST
Astronomical Twilight 4:59 AM CST 6:30 PM CST
Moon No Moon Rise 12:53 PM CST (11/7)
Length of Visible Light 11h 36m
Length of Day
10h 45m
Last Quarter, 43% of the Moon is Illuminated
Nov 7
Last Quarter
Nov 13
New
Nov 20
First Quarter
Nov 28
Full
Dec 6
Last Quarter

Hourly Weather History & Observations

Time (CST) Temp. Windchill Dew Point Humidity Pressure Visibility Wind Dir Wind Speed Gust Speed Precip Events Conditions
12:53 AM 43.0 °F - 41.0 °F 93% 30.06 in 8.0 mi Calm Calm - N/A   Clear
1:53 AM 42.1 °F - 41.0 °F 96% 30.05 in 8.0 mi Calm Calm - N/A   Clear
2:53 AM 41.0 °F - 39.9 °F 96% 30.05 in 8.0 mi Calm Calm - N/A   Clear
3:53 AM 45.0 °F 42.6 °F 43.0 °F 93% 30.05 in 10.0 mi WNW 4.6 mph - N/A   Clear
4:53 AM 45.0 °F 41.8 °F 43.0 °F 93% 30.06 in 9.0 mi West 5.8 mph - N/A   Clear
5:53 AM 44.1 °F 42.5 °F 43.0 °F 96% 30.07 in 9.0 mi WNW 3.5 mph - 0.01 in   Clear
6:53 AM 44.1 °F 42.5 °F 42.1 °F 93% 30.09 in 8.0 mi NNW 3.5 mph - N/A   Clear
7:53 AM 50.0 °F - 46.0 °F 86% 30.10 in 10.0 mi NW 3.5 mph - N/A   Clear
8:53 AM 55.0 °F - 44.1 °F 67% 30.11 in 10.0 mi North 9.2 mph - N/A   Clear
9:53 AM 60.1 °F - 43.0 °F 53% 30.10 in 10.0 mi NW 10.4 mph 16.1 mph N/A   Clear
10:53 AM 62.1 °F - 39.0 °F 43% 30.09 in 10.0 mi North 8.1 mph - N/A   Clear
11:53 AM 64.0 °F - 37.0 °F 37% 30.06 in 10.0 mi NW 18.4 mph 21.9 mph N/A   Clear
12:53 PM 64.9 °F - 35.1 °F 33% 30.04 in 10.0 mi NW 11.5 mph - N/A   Clear
1:53 PM 66.0 °F - 34.0 °F 30% 30.02 in 10.0 mi NW 13.8 mph 24.2 mph N/A   Clear
2:53 PM 66.0 °F - 35.1 °F 32% 30.02 in 10.0 mi NW 10.4 mph 17.3 mph N/A   Clear
3:53 PM 64.9 °F - 33.1 °F 31% 30.03 in 10.0 mi NNW 12.7 mph - N/A   Clear
5:53 PM 55.0 °F - 39.0 °F 55% 30.07 in 10.0 mi NNW 5.8 mph - N/A   Clear
6:53 PM 52.0 °F - 37.9 °F 59% 30.09 in 10.0 mi NNW 4.6 mph - N/A   Clear
7:53 PM 52.0 °F - 37.9 °F 59% 30.12 in 10.0 mi North 4.6 mph - N/A   Clear
8:53 PM 52.0 °F - 37.0 °F 57% 30.14 in 10.0 mi NNE 5.8 mph - N/A   Clear
9:53 PM 48.9 °F - 37.9 °F 66% 30.16 in 10.0 mi NNE 3.5 mph - N/A   Clear
10:53 PM 48.0 °F - 37.0 °F 66% 30.17 in 10.0 mi NE 3.5 mph - N/A   Clear
11:53 PM 45.0 °F - 37.0 °F 74% 30.17 in 10.0 mi Calm Calm - N/A   Clear